Regional Weather Roundup
Issued by NWS

Home | Current Version | Previous Version | Graphics & Text | Print | Product List | Glossary On
Versions: 1 2 3 4 5 6 7 8 9 10 11 12 13 14 15 16 17 18 19 20 21 22 23 24 25 26 27 28 29 30 31 32 33 34 35 36 37 38 39 40 41 42 43 44 45 46 47 48 49 50
000
ASUS43 KDMX 240507
RWRIA

WEATHER ROUNDUP FOR IOWA
NATIONAL WEATHER SERVICE DES MOINES IA
1200 AM CDT SUN MAY 24 2015

NOTE: "FAIR" INDICATES FEW OR NO CLOUDS BELOW 12,000 FEET WITH NO
SIGNIFICANT WEATHER AND/OR OBSTRUCTIONS TO VISIBILITY.

* - THESE STATIONS ARE NOT NWS STATIONS...THUS NOT UNDER NWS
QUALITY CONTROL.  THEY ALSO DO NOT REPORT WEATHER SUCH
AS PRECIPITATION OR FOG.

IAZ001>003-012>014-020>022-031>034-043>046-240600-
   NORTHWEST IOWA

CITY           SKY/WX    TMP DP  RH WIND       PRES   REMARKS
CARROLL *      CLOUDY    64  57  77 SE9       30.05F
CHEROKEE *     CLOUDY    61  57  88 NE5       30.05F
DENISON *      CLOUDY    63  63 100 E6        30.02F
LE MARS *      LGT RAIN  61  59  94 NE5       30.06F
ORANGE CITY *  CLOUDY    61  54  77 CALM      30.07F
SHELDON *      CLOUDY    61  55  82 CALM      30.07S
SIOUX CITY     LGT RAIN  61  57  87 E8        30.04F
SPENCER        CLOUDY    63  56  78 E5        30.08F
STORM LAKE *   CLOUDY    63  57  82 E5        30.07F
$$

IAZ055>058-069>071-079>083-090>094-240600-
   SOUTHWEST IOWA

CITY           SKY/WX    TMP DP  RH WIND       PRES   REMARKS
ATLANTIC *     CLOUDY    63  59  88 VRB7      30.04S
AUDUBON *      LGT RAIN  61  57  88 E7        30.06F
CLARINDA *     LGT RAIN  61  59  94 SE13G20   30.02S
COUNCIL BLFS * CLOUDY    61  61 100 SE8G14    30.03R
CRESTON *      MOCLDY    59  59 100 SE14      30.05F
HARLAN  *      CLOUDY    61  61 100 NE5       30.06F
LAMONI         CLOUDY    63  57  81 SE7       30.08F
RED OAK *      CLOUDY    63  61  94 E13       30.02F
SHENANDOAH *   CLOUDY    63  61  94 E20G29    29.98F
$$

IAZ047>049-059>061-072>074-084-240600-
   CENTRAL IOWA

CITY           SKY/WX    TMP DP  RH WIND       PRES   REMARKS
AMES           CLOUDY    65  53  65 SE3       30.08F
ANKENY *       CLOUDY    66  55  68 SE5       30.08S
CHARITON *     CLOUDY    64  55  72 SE5       30.09S
DES MOINES     CLOUDY    68  53  58 SE9       30.07F
GRINNELL*      CLOUDY    66  52  59 SE6       30.11S
KNOXVILLE *    CLOUDY    66  54  63 SE6       30.08F
MARSHALLTOWN   CLOUDY    64  51  62 SE7       30.09F
PELLA *        CLOUDY    66  57  72 SE5       30.10F
PERRY *        CLOUDY    64  55  72 E6        30.07F
$$

IAZ004>006-015-016-023>025-035-036-240600-
   NORTH CENTRAL IOWA

CITY           SKY/WX    TMP DP  RH WIND       PRES   REMARKS
ALGONA *       CLOUDY    63  57  82 E6        30.09F
CLARION *      CLOUDY    64  55  72 SE7       30.09F
ESTHERVILLE    CLOUDY    62  55  77 E6        30.08F
FORT DODGE *   CLOUDY    64  54  68 SE6       30.07F
MASON CITY     CLOUDY    64  52  64 SE5       30.11F
FOREST CITY *  CLOUDY    61  54  77 CALM      30.11S
IOWA FALLS *   CLOUDY    66  52  59 SE3       30.11F
$$

IAZ007>011-017>019-026>030-037>042-050>054-066-240600-
   NORTHEAST IOWA

CITY           SKY/WX    TMP DP  RH WIND       PRES   REMARKS
CEDAR RAPIDS   CLOUDY    64  50  60 SE7       30.10F
CHARLES CITY * CLOUDY    64  48  55 E6        30.12F
CLINTON *      CLOUDY    64  46  52 SE9       30.17F
DECORAH *      CLOUDY    64  48  55 SE3       30.14S
DUBUQUE        MOCLDY    61  50  67 CALM      30.16F
MONTICELLO *   CLEAR     61  52  72 CALM      30.13F
OELWEIN *      CLOUDY    64  50  59 SE6       30.13F
WATERLOO       CLOUDY    65  49  56 SE5       30.10F
$$

IAZ064-065-067-068-078-240600-
   EAST CENTRAL IOWA

CITY           SKY/WX    TMP DP  RH WIND       PRES   REMARKS
DAVENPORT      CLOUDY    63  47  55 SE7       30.14F
IOWA CITY      CLOUDY    65  50  58 S3        30.13F
MT. PLEASANT * CLOUDY    64  52  63 SE6       30.13R
MUSCATINE *    CLEAR     61  52  72 W5        30.13S
QUAD CITIES    MOCLDY    61  49  64 SE6       30.13F
$$

IAZ062-063-075>077-085>089-095>099-240600-
   SOUTHEAST IOWA

CITY           SKY/WX    TMP DP  RH WIND       PRES   REMARKS
BURLINGTON     CLOUDY    68  51  54 S7        30.13R
FAIRFIELD *    CLOUDY    64  54  68 SE6       30.11F
FORT MADISON * MOCLDY    68  52  56 SE7       30.13S
KEOKUK *       CLOUDY    68  52  56 SE7       30.11S
OSKALOOSA *    CLOUDY    66  54  63 SE6       30.10F
CENTERVILLE *  CLOUDY    63  63 100 SE7       30.11S
OTTUMWA        CLOUDY    64  55  72 SE6       30.10F
WASHINGTON *   CLOUDY    66  50  55 SE7       30.14R
$$

ABBREVIATIONS USED IN REMARKS
   TC - TEMPERATURES IN CELSIUS
  WCI - WIND CHILL INDEX
   HX - HEAT INDEX
  VSB - VISIBILITY
$$



USA.gov is the U.S. government's official web portal to all federal, state and local government web resources and services.